Regional Weather Roundup
Issued by NWS Midland/Odessa, TX

Skip options and go directly to product.
Home | Oldest Version | Next Version | Current Version | All | Text Only | Save Text | Print | Product List | Glossary On

Skip product version selection by date and time.   
189
ASUS44 KMAF 281702
RWRMAF
MIDLAND AREA WEATHER ROUNDUP
NATIONAL WEATHER SERVICE MIDLAND TX
1200 PM CDT MON JUL 28 2014

...IN SOUTHWEST TEXAS AND SOUTHEAST NEW MEXICO...

CITY           SKY/WX    TMP DP  RH WIND       PRES   REMARKS
ALPINE         PTSUNNY   83  61  48 N10G16    30.36S
ANDREWS        FAIR      88  59  37 NE9       30.26S
ARTESIA        CLOUDY    81  57  44 N17       30.29R
BIG SPRING     MOSUNNY   92  63  38 N7        30.25F
CARLSBAD       CLOUDY    86  54  33 N22       30.26S
DRYDEN           N/A     95  64  35 E13       30.16S
FORT STOCKTON  SUNNY     90  59  35 SE9       30.21S
GUAD PASS      PTSUNNY   77  62  59 E15         N/A
HOBBS          MOSUNNY   84  59  42 NE14G20   30.31R
MARFA          CLOUDY    66  63  88 NW15      30.36R
MIDLAND AIRPK  MOSUNNY   90  60  35 N5        30.24F
MIDLAND INTL   MOSUNNY   91  62  37 NE8       30.23S
ODESSA         SUNNY     90  59  35 VRB3      30.24S
PECOS          SUNNY     90  59  34 NE6       30.20R
PRESIDIO       PTSUNNY   92  56  30 E5        30.17F
SEMINOLE       MOSUNNY   85  58  39 NE10      30.29S
SNYDER         MOSUNNY   86  66  51 N14G20    30.26R
WINK           MOSUNNY   93  60  33 CALM      30.20S
$$
...OTHER STATIONS IN TEXAS...

CITY           SKY/WX    TMP DP  RH WIND       PRES   REMARKS
ABILENE        MOSUNNY   92  65  40 NW7       30.20S
AMARILLO       PTSUNNY   69  64  84 E21       30.36S
AUSTIN         MOSUNNY   91  71  51 SW10      30.13S
BROWNSVILLE    MOSUNNY   94  73  50 S13G22    30.09S HX 103
CORPUS CHRISTI PTSUNNY   93  73  52 S12       30.10F HX 102
DALLAS FTW     PTSUNNY   93  68  43 N14       30.14S
DEL RIO        MOSUNNY   86  71  60 E12       30.12S
EL PASO        CLOUDY    82  59  45 NE15      30.26F
HOUSTON INT    MOSUNNY   90  73  57 NW7       30.12F
LUBBOCK        PTSUNNY   78  62  57 E23G32    30.32R
SAN ANGELO     SUNNY     93  65  39 VRB6      30.18S
SAN ANTONIO    MOSUNNY   87  73  62 VRB6      30.15S
WACO           MOSUNNY   95  68  41 VRB3      30.13F
WICHITA FALLS  NOT AVBL
$$
...OTHER LOCATIONS IN NEW MEXICO...

CITY           SKY/WX    TMP DP  RH WIND       PRES   REMARKS
ALAMAGORDO     CLOUDY    73  64  73 NW10      30.31S
ALBUQUERQUE    CLOUDY    77  54  44 S5G22     30.41S
CANNON AFB     MOSUNNY   75  60  59 E15G21    30.38S
CLOVIS         NOT AVBL
HOLLOMAN AFB   CLOUDY    74  63  67 NW12      30.29F
ROSWELL        CLOUDY    82  60  47 NE15      30.29F
RUIDOSO        CLOUDY    61  55  82 N3        30.52F
SANTA FE       SUNNY     72  55  55 SE7       30.47F
TRUTH OR CONSE CLOUDY    75  59  57 E6        30.37R
TUCUMCARI      CLOUDY    77  59  53 SE10G17   30.37F
$$

USA.gov is the U.S. government's official web portal to all federal, state and local government web resources and services.